LA7IN Weather Reports


time (UTC)temp
C
wind
direction
speed
KPH
gust
KPH
rain 1hr
cm
rain 24hr
cm
rain mn
cm
humidity
%
barometer
mb
20260503021552 5 296 6.4 16.1 0.00 0.05 0.00 92 1012.4
20260503020053 5 299 4.8 12.9 0.00 0.05 0.00 92 1012.4
20260503014605 5 299 3.2 14.5 0.00 0.05 0.00 93 1012.4
20260503013047 5 338 6.4 14.5 0.00 0.05 0.00 93 1012.3
20260503011550 5 328 4.8 14.5 0.00 0.05 0.00 92 1012.4
20260503010043 5 359 3.2 14.5 0.00 0.05 0.00 92 1012.3
20260503004542 6 312 4.8 14.5 0.00 0.05 0.00 93 1012.5
20260503003039 6 339 4.8 14.5 0.00 0.05 0.00 93 1012.4
20260503001551 6 336 6.4 16.1 0.00 0.05 0.00 93 1012.6
20260503000034 6 354 4.8 12.9 0.00 0.05 0.00 93 1012.5
20260502234539 6 337 3.2 12.9 0.00 0.05 0.00 93 1012.4
20260502233032 6 359 3.2 9.7 0.00 0.05 0.00 93 1012.5
20260502231531 6 319 4.8 16.1 0.00 0.05 0.00 93 1012.5
20260502230034 7 293 3.2 9.7 0.00 0.05 0.00 93 1012.5
20260502224527 7 289 3.2 12.9 0.00 0.05 0.00 92 1012.6
20260502223027 7 348 1.6 8.0 0.00 0.05 0.00 92 1012.4
20260502221526 7 308 4.8 12.9 0.00 0.05 0.00 92 1012.6
20260502220027 7 303 4.8 12.9 0.00 0.05 0.00 92 1012.5
20260502214521 7 359 4.8 16.1 0.00 0.05 0.05 91 1012.4
20260502213020 7 359 4.8 9.7 0.00 0.05 0.05 91 1012.6
20260502211519 7 304 4.8 12.9 0.00 0.05 0.05 90 1012.6
20260502210016 7 324 1.6 12.9 0.00 0.05 0.05 89 1012.5
20260502204515 7 314 6.4 12.9 0.00 0.05 0.05 88 1012.4
20260502203013 8 298 3.2 8.0 0.00 0.05 0.05 86 1012.4
20260502201512 8 305 3.2 8.0 0.00 0.05 0.05 85 1012.3
20260502200011 8 322 4.8 9.7 0.00 0.05 0.05 85 1012.3
20260502194510 8 296 3.2 6.4 0.00 0.05 0.05 85 1012.1
20260502193011 8 299 4.8 8.0 0.00 0.05 0.05 86 1011.9
20260502191510 9 324 6.4 16.1 0.00 0.05 0.05 86 1012.0
20260502190013 9 287 6.4 14.5 0.00 0.05 0.05 84 1012.0
20260502184523 9 310 3.2 12.9 0.00 0.05 0.05 82 1011.9
20260502183024 9 308 3.2 9.7 0.00 0.05 0.05 82 1011.9
20260502181507 9 320 4.8 14.5 0.00 0.05 0.05 81 1011.8
20260502163007 11 334 1.6 9.7 0.00 0.05 0.05 76 1011.7
20260502161505 11 341 1.6 8.0 0.00 0.05 0.05 76 1011.8
20260502151608 11 8 3.2 12.9 0.00 0.05 0.05 71 1012.1
20260502123040 9 10 3.2 8.0 0.05 0.05 0.05 79 1013.4
20260502121548 8 359 0.0 6.4 0.05 0.05 0.05 79 1013.2
20260502114541 9 326 3.2 4.8 0.05 0.05 0.05 77 1013.5
20260502113038 10 270 0.0 4.8 0.00 0.00 0.00 76 1013.4
20260502111537 10 270 0.0 3.2 0.00 0.00 0.00 75 1013.1
20260502110037 10 270 0.0 4.8 0.00 0.00 0.00 73 1013.0
20260502104535 10 277 0.0 4.8 0.00 0.00 0.00 73 1013.1
20260502103040 10 349 0.0 3.2 0.00 0.00 0.00 71 1013.5
20260502101542 10 359 0.0 3.2 0.00 0.00 0.00 76 1013.6
20260502091528 10 359 0.0 1.6 0.00 0.00 0.00 69 1014.0
20260502071524 10 294 0.0 4.8 0.00 0.00 0.00 68 1014.1
20260502070022 11 294 1.6 4.8 0.00 0.00 0.00 63 1014.2
20260502064520 11 147 0.0 0.0 0.00 0.00 0.00 60 1014.0
20260502063026 11 147 0.0 0.0 0.00 0.00 0.00 60 1014.1
20260502061519 10 147 0.0 0.0 0.00 0.00 0.00 61 1014.2
20260502060018 10 147 0.0 1.6 0.00 0.00 0.00 65 1014.1
20260502054517 9 147 0.0 1.6 0.00 0.00 0.00 66 1014.2
20260502053017 9 147 0.0 1.6 0.00 0.00 0.00 64 1014.3
20260502051516 8 147 0.0 1.6 0.00 0.00 0.00 66 1014.4
20260502050014 8 147 0.0 1.6 0.00 0.00 0.00 62 1014.5
20260502044514 8 147 0.0 3.2 0.00 0.00 0.00 62 1014.5
20260502043013 7 147 1.6 4.8 0.00 0.00 0.00 62 1014.4
20260502041511 7 150 0.0 0.0 0.00 0.00 0.00 61 1014.9
20260502040009 7 150 0.0 1.6 0.00 0.00 0.00 61 1015.0
20260502034510 7 150 0.0 1.6 0.00 0.00 0.00 62 1015.0
20260502033007 7 150 0.0 4.8 0.00 0.00 0.00 62 1015.1
20260502031504 7 153 0.0 0.0 0.00 0.00 0.00 61 1015.4
20260502030000 8 153 0.0 0.0 0.00 0.00 0.00 60 1015.4
20260502024559 8 153 0.0 4.8 0.00 0.00 0.00 60 1015.6
20260502023059 8 152 0.0 4.8 0.00 0.00 0.00 60 1016.0